{"data":{"norad_id":63279,"epoch":"2026-05-25T01:10:11.072064Z","epoch_age_seconds":64132,"freshness":"FRESH","line1":"1 63279U 25053Q   26145.04873926  .00005308  00000+0  20221-3 0  9994","line2":"2 63279  43.0009 166.9022 0001596 258.7984 101.2689 15.27588384 68029","mean_motion":15.27588384,"eccentricity":0.0001596,"inclination_deg":43.0009,"raan_deg":166.9022,"arg_perigee_deg":258.7984,"mean_anomaly_deg":101.2689,"bstar":0.00020221,"rev_number":6802,"period_min":94.266231341021,"perigee_km":481.92895014811,"apogee_km":484.11903273658,"semimajor_km":6861.1609914423,"source":"CELESTRAK","updated_at":"2026-05-25T13:38:19.927107Z"}}